Time,TemperatureF,DewpointF,PressureIn,WindDirection,WindDirectionDegrees,WindSpeedMPH,WindSpeedGustMPH,Humidity,HourlyPrecipIn,Conditions,Clouds,dailyrainin,SoftwareType,DateUTC
2013-02-12 00:00:00,39.4,37.3,29.78,SW,225,0.4,0.7,92,0.00,,,0.30,WUHU216HW,2013-02-12 05:00:00,
2013-02-12 00:05:00,39.1,36.6,29.78,North,0,0.0,0.7,91,0.02,,,0.02,WUHU216HW,2013-02-12 05:05:00,
2013-02-12 00:10:00,38.5,35.8,29.78,SE,135,0.9,0.9,90,0.00,,,0.02,WUHU216HW,2013-02-12 05:10:00,
2013-02-12 00:15:00,38.3,35.6,29.78,SW,225,0.0,0.9,90,0.02,,,0.02,WUHU216HW,2013-02-12 05:15:00,
2013-02-12 00:20:00,38.0,35.3,29.78,WSW,248,0.0,0.9,90,2.59,,,0.02,WUHU216HW,2013-02-12 05:20:00,
2013-02-12 00:25:00,38.2,35.5,29.78,WSW,248,0.0,0.4,90,0.02,,,0.02,WUHU216HW,2013-02-12 05:25:00,
2013-02-12 00:35:00,37.4,35.0,29.78,NW,315,0.0,0.4,91,0.02,,,0.02,WUHU216HW,2013-02-12 05:35:00,
2013-02-12 00:40:00,37.3,34.8,29.79,NNW,338,0.0,1.1,91,2.59,,,0.02,WUHU216HW,2013-02-12 05:40:00,
2013-02-12 00:45:00,37.1,34.7,29.78,West,270,0.0,1.1,91,0.02,,,0.02,WUHU216HW,2013-02-12 05:45:00,
2013-02-12 00:50:00,37.1,34.9,29.79,WSW,248,0.2,0.7,92,2.59,,,0.02,WUHU216HW,2013-02-12 05:50:00,
2013-02-12 00:55:00,37.3,35.1,29.79,WNW,293,0.2,0.9,92,0.02,,,0.02,WUHU216HW,2013-02-12 05:55:00,
2013-02-12 01:05:00,38.0,36.1,29.78,West,270,0.9,2.2,93,0.02,,,0.04,WUHU216HW,2013-02-12 06:05:00,
2013-02-12 01:15:00,39.6,32.0,29.77,WNW,293,6.9,6.9,74,0.02,,,0.04,WUHU216HW,2013-02-12 06:15:00,
2013-02-12 01:25:00,40.1,31.5,29.78,NNW,338,1.3,6.3,71,0.02,,,0.04,WUHU216HW,2013-02-12 06:25:00,
2013-02-12 01:35:00,40.1,31.1,29.78,WSW,248,5.6,6.5,70,0.02,,,0.04,WUHU216HW,2013-02-12 06:35:00,
2013-02-12 01:45:00,40.0,29.8,29.78,NNW,338,5.6,5.6,67,0.02,,,0.04,WUHU216HW,2013-02-12 06:45:00,
2013-02-12 01:50:00,40.0,29.8,29.79,WNW,293,4.0,6.3,67,0.00,,,0.04,WUHU216HW,2013-02-12 06:50:00,
2013-02-12 01:55:00,40.0,29.8,29.79,NW,315,3.4,6.3,67,0.02,,,0.04,WUHU216HW,2013-02-12 06:55:00,
2013-02-12 02:00:00,40.0,29.4,29.80,SW,225,4.7,5.8,66,0.00,,,0.04,WUHU216HW,2013-02-12 07:00:00,
2013-02-12 02:05:00,40.0,29.1,29.80,NW,315,3.4,6.9,65,0.02,,,0.06,WUHU216HW,2013-02-12 07:05:00,
2013-02-12 02:10:00,40.0,29.1,29.81,WNW,293,2.5,6.9,65,0.00,,,0.06,WUHU216HW,2013-02-12 07:10:00,
2013-02-12 02:15:00,40.0,28.4,29.81,WSW,248,5.6,5.6,63,0.02,,,0.06,WUHU216HW,2013-02-12 07:15:00,
2013-02-12 02:20:00,39.8,28.5,29.81,West,270,5.6,5.6,64,0.00,,,0.06,WUHU216HW,2013-02-12 07:20:00,
2013-02-12 02:25:00,39.6,28.4,29.81,NNW,338,4.5,5.6,64,0.02,,,0.06,WUHU216HW,2013-02-12 07:25:00,
2013-02-12 02:30:00,39.8,28.5,29.81,NNW,338,0.7,7.4,64,0.00,,,0.06,WUHU216HW,2013-02-12 07:30:00,
2013-02-12 02:35:00,39.6,28.4,29.81,North,0,0.4,7.4,64,0.00,,,0.00,WUHU216HW,2013-02-12 07:35:00,
2013-02-12 02:40:00,39.6,28.4,29.81,North,0,4.0,4.7,64,0.00,,,0.06,WUHU216HW,2013-02-12 07:40:00,
2013-02-12 02:50:00,39.4,28.2,29.81,NW,315,1.1,4.7,64,0.00,,,0.06,WUHU216HW,2013-02-12 07:50:00,
2013-02-12 03:00:00,39.4,28.2,29.81,WSW,248,2.7,6.3,64,0.00,,,0.06,WUHU216HW,2013-02-12 08:00:00,
2013-02-12 03:10:00,39.2,28.0,29.80,NW,315,2.5,3.1,64,0.00,,,0.08,WUHU216HW,2013-02-12 08:10:00,
2013-02-12 03:20:00,39.2,27.6,29.81,NW,315,3.4,4.7,63,0.00,,,0.08,WUHU216HW,2013-02-12 08:20:00,
2013-02-12 03:30:00,39.1,27.5,29.81,WNW,293,3.1,5.4,63,0.00,,,0.08,WUHU216HW,2013-02-12 08:30:00,
2013-02-12 03:40:00,39.2,27.6,29.82,NNW,338,4.7,5.1,63,0.00,,,0.08,WUHU216HW,2013-02-12 08:40:00,
2013-02-12 03:51:00,39.6,28.0,29.83,West,270,2.0,4.7,63,0.00,,,0.08,WUHU216HW,2013-02-12 08:51:00,
2013-02-12 04:01:00,39.4,28.2,29.82,SW,225,2.5,5.6,64,0.00,,,0.08,WUHU216HW,2013-02-12 09:01:00,
2013-02-12 04:11:00,39.4,28.2,29.83,NW,315,2.7,4.9,64,0.00,,,0.10,WUHU216HW,2013-02-12 09:11:00,
2013-02-12 04:21:00,39.2,27.6,29.83,NW,315,4.0,5.1,63,0.00,,,0.10,WUHU216HW,2013-02-12 09:21:00,
2013-02-12 04:31:00,39.2,27.6,29.83,West,270,4.0,4.0,63,0.00,,,0.10,WUHU216HW,2013-02-12 09:31:00,
2013-02-12 04:41:00,39.2,27.6,29.83,WNW,293,2.9,4.5,63,0.00,,,0.10,WUHU216HW,2013-02-12 09:41:00,
2013-02-12 04:51:00,39.2,28.0,29.84,WNW,293,1.3,3.6,64,0.00,,,0.10,WUHU216HW,2013-02-12 09:51:00,
2013-02-12 05:01:00,39.2,28.0,29.84,WSW,248,4.0,4.0,64,0.00,,,0.10,WUHU216HW,2013-02-12 10:01:00,
2013-02-12 05:11:00,39.1,27.8,29.84,WSW,248,4.5,4.5,64,0.00,,,0.12,WUHU216HW,2013-02-12 10:11:00,
2013-02-12 05:21:00,39.2,27.6,29.84,NNW,338,1.1,4.7,63,0.00,,,0.12,WUHU216HW,2013-02-12 10:21:00,
2013-02-12 05:31:00,39.1,27.8,29.84,NW,315,2.2,4.0,64,0.00,,,0.12,WUHU216HW,2013-02-12 10:31:00,
2013-02-12 05:41:00,39.1,27.8,29.84,WNW,293,1.1,2.9,64,0.00,,,0.12,WUHU216HW,2013-02-12 10:41:00,
2013-02-12 05:52:00,39.1,27.8,29.85,WNW,293,2.5,3.4,64,0.00,,,0.12,WUHU216HW,2013-02-12 10:52:00,
2013-02-12 06:02:00,39.1,27.6,29.85,West,270,4.7,5.4,63,0.00,,,0.12,WUHU216HW,2013-02-12 11:02:00,
2013-02-12 06:12:00,38.9,27.3,29.84,West,270,3.6,4.5,63,2.59,,,0.14,WUHU216HW,2013-02-12 11:12:00,
2013-02-12 06:22:00,38.9,27.3,29.85,WSW,248,2.9,5.8,63,2.59,,,0.14,WUHU216HW,2013-02-12 11:22:00,
2013-02-12 06:32:00,38.7,27.5,29.85,WSW,248,1.1,3.4,64,2.59,,,0.14,WUHU216HW,2013-02-12 11:32:00,
2013-02-12 06:42:00,38.7,27.5,29.85,NNW,338,1.1,7.2,64,2.59,,,0.14,WUHU216HW,2013-02-12 11:42:00,
2013-02-12 06:52:00,38.5,26.9,29.86,NW,315,3.4,5.1,63,2.59,,,0.14,WUHU216HW,2013-02-12 11:52:00,
2013-02-12 07:02:00,38.5,26.9,29.86,West,270,1.1,3.4,63,0.00,,,0.16,WUHU216HW,2013-02-12 12:02:00,
2013-02-12 07:12:00,38.3,26.8,29.87,NW,315,4.5,4.5,63,0.00,,,0.16,WUHU216HW,2013-02-12 12:12:00,
2013-02-12 07:22:00,38.3,27.2,29.88,WNW,293,1.6,2.2,64,0.00,,,0.16,WUHU216HW,2013-02-12 12:22:00,
2013-02-12 07:32:00,38.3,26.8,29.88,NW,315,2.7,3.6,63,0.00,,,0.16,WUHU216HW,2013-02-12 12:32:00,
2013-02-12 07:42:00,38.3,26.8,29.88,NNW,338,2.9,4.3,63,0.00,,,0.16,WUHU216HW,2013-02-12 12:42:00,
2013-02-12 07:53:00,38.5,26.9,29.88,West,270,2.7,4.3,63,0.00,,,0.16,WUHU216HW,2013-02-12 12:53:00,
2013-02-12 08:03:00,38.5,26.9,29.88,NW,315,1.8,4.9,63,0.00,,,0.18,WUHU216HW,2013-02-12 13:03:00,
2013-02-12 08:13:00,38.5,26.9,29.88,NNW,338,4.7,4.7,63,0.00,,,0.18,WUHU216HW,2013-02-12 13:13:00,
2013-02-12 08:23:00,38.9,27.3,29.88,WSW,248,2.0,4.9,63,0.00,,,0.18,WUHU216HW,2013-02-12 13:23:00,
2013-02-12 08:33:00,39.4,27.4,29.89,NW,315,2.7,4.0,62,0.00,,,0.18,WUHU216HW,2013-02-12 13:33:00,
2013-02-12 08:43:00,39.8,27.7,29.89,NNW,338,2.5,3.8,62,0.00,,,0.18,WUHU216HW,2013-02-12 13:43:00,
2013-02-12 08:53:00,40.3,27.5,29.89,WNW,293,1.6,5.1,60,0.00,,,0.18,WUHU216HW,2013-02-12 13:53:00,
2013-02-12 09:03:00,40.7,27.0,29.89,WNW,293,3.1,6.9,58,0.00,,,0.20,WUHU216HW,2013-02-12 14:03:00,
2013-02-12 09:13:00,40.5,26.8,29.90,West,270,4.0,4.0,58,0.00,,,0.20,WUHU216HW,2013-02-12 14:13:00,
2013-02-12 09:23:00,40.7,27.0,29.91,West,270,4.7,4.7,58,0.00,,,0.20,WUHU216HW,2013-02-12 14:23:00,
2013-02-12 09:33:00,41.2,27.6,29.91,SSW,203,2.7,5.1,58,0.00,,,0.20,WUHU216HW,2013-02-12 14:33:00,
2013-02-12 09:43:00,41.2,27.1,29.91,NW,315,4.7,5.4,57,0.00,,,0.20,WUHU216HW,2013-02-12 14:43:00,
2013-02-12 09:54:00,41.0,26.9,29.91,WSW,248,1.8,5.4,57,0.00,,,0.20,WUHU216HW,2013-02-12 14:54:00,
2013-02-12 10:04:00,40.7,27.0,29.91,WSW,248,5.6,5.6,58,0.00,,,0.22,WUHU216HW,2013-02-12 15:04:00,
2013-02-12 10:14:00,40.9,27.2,29.92,NW,315,3.4,3.4,58,0.00,,,0.22,WUHU216HW,2013-02-12 15:14:00,
2013-02-12 10:24:00,40.9,27.2,29.92,WSW,248,2.9,3.4,58,0.00,,,0.22,WUHU216HW,2013-02-12 15:24:00,
2013-02-12 10:34:00,40.9,27.2,29.93,NW,315,4.3,4.9,58,0.00,,,0.22,WUHU216HW,2013-02-12 15:34:00,
2013-02-12 10:44:00,40.7,27.0,29.93,NW,315,0.9,2.5,58,0.00,,,0.22,WUHU216HW,2013-02-12 15:44:00,
2013-02-12 10:54:00,40.9,27.6,29.93,West,270,1.3,4.3,59,0.00,,,0.22,WUHU216HW,2013-02-12 15:54:00,
2013-02-12 11:04:00,40.7,27.0,29.93,WSW,248,0.4,8.7,58,0.00,,,0.24,WUHU216HW,2013-02-12 16:04:00,
2013-02-12 11:15:00,40.7,27.0,29.94,NW,315,1.1,4.0,58,0.00,,,0.24,WUHU216HW,2013-02-12 16:15:00,
2013-02-12 11:25:00,40.7,26.6,29.94,NNW,338,2.2,6.3,57,0.00,,,0.24,WUHU216HW,2013-02-12 16:25:00,
2013-02-12 11:35:00,40.9,27.2,29.95,WSW,248,2.5,3.4,58,0.00,,,0.24,WUHU216HW,2013-02-12 16:35:00,
2013-02-12 11:45:00,40.9,27.2,29.95,West,270,2.7,4.7,58,0.00,,,0.24,WUHU216HW,2013-02-12 16:45:00,
2013-02-12 11:55:00,40.7,26.6,29.95,WSW,248,2.9,6.9,57,0.00,,,0.24,WUHU216HW,2013-02-12 16:55:00,
2013-02-12 12:05:00,40.7,27.0,29.95,WSW,248,1.1,4.0,58,0.00,,,0.26,WUHU216HW,2013-02-12 17:05:00,
2013-02-12 12:15:00,40.7,27.0,29.94,NNW,338,2.5,7.4,58,0.00,,,0.26,WUHU216HW,2013-02-12 17:15:00,
2013-02-12 12:25:00,41.0,26.9,29.95,North,0,3.4,4.0,57,0.00,,,0.26,WUHU216HW,2013-02-12 17:25:00,
2013-02-12 12:35:00,41.0,26.9,29.95,WSW,248,6.5,6.5,57,0.00,,,0.26,WUHU216HW,2013-02-12 17:35:00,
2013-02-12 12:45:00,40.7,26.6,29.95,WNW,293,5.4,7.6,57,0.00,,,0.26,WUHU216HW,2013-02-12 17:45:00,
2013-02-12 12:55:00,41.0,26.9,29.95,WNW,293,4.9,5.4,57,0.00,,,0.26,WUHU216HW,2013-02-12 17:55:00,
2013-02-12 13:05:00,41.4,26.8,29.94,WSW,248,3.1,4.0,56,0.00,,,0.28,WUHU216HW,2013-02-12 18:05:00,
2013-02-12 13:15:00,41.4,26.8,29.95,North,0,3.4,4.7,56,0.00,,,0.28,WUHU216HW,2013-02-12 18:15:00,
2013-02-12 13:26:00,41.2,26.7,29.95,WNW,293,5.4,5.4,56,0.00,,,0.28,WUHU216HW,2013-02-12 18:26:00,
2013-02-12 13:36:00,41.0,26.5,29.94,West,270,5.6,7.2,56,0.00,,,0.28,WUHU216HW,2013-02-12 18:36:00,
2013-02-12 13:46:00,41.4,26.8,29.93,NW,315,2.5,6.0,56,0.00,,,0.28,WUHU216HW,2013-02-12 18:46:00,
2013-02-12 13:56:00,41.6,27.0,29.93,NW,315,2.9,5.8,56,0.00,,,0.28,WUHU216HW,2013-02-12 18:56:00,
2013-02-12 14:06:00,41.4,26.8,29.93,NW,315,3.4,6.7,56,0.00,,,0.30,WUHU216HW,2013-02-12 19:06:00,
2013-02-12 14:16:00,41.0,26.9,29.93,NNW,338,1.6,5.4,57,0.00,,,0.30,WUHU216HW,2013-02-12 19:16:00,
2013-02-12 14:26:00,41.4,26.8,29.93,NW,315,2.7,6.3,56,0.00,,,0.30,WUHU216HW,2013-02-12 19:26:00,
2013-02-12 14:36:00,41.4,26.8,29.93,NW,315,1.6,5.6,56,0.00,,,0.30,WUHU216HW,2013-02-12 19:36:00,
2013-02-12 14:46:00,41.4,26.8,29.93,NNW,338,4.0,8.1,56,0.00,,,0.30,WUHU216HW,2013-02-12 19:46:00,
2013-02-12 14:56:00,41.4,26.4,29.93,NNW,338,3.1,4.7,55,0.00,,,0.30,WUHU216HW,2013-02-12 19:56:00,
2013-02-12 15:06:00,41.4,25.9,29.93,WSW,248,6.0,6.0,54,0.00,,,0.32,WUHU216HW,2013-02-12 20:06:00,
2013-02-12 15:16:00,41.0,26.5,29.93,NW,315,2.7,3.4,56,0.00,,,0.32,WUHU216HW,2013-02-12 20:16:00,
2013-02-12 15:26:00,40.7,26.1,29.93,WSW,248,2.2,6.3,56,0.00,,,0.32,WUHU216HW,2013-02-12 20:26:00,
2013-02-12 15:36:00,40.5,26.8,29.93,NW,315,1.3,6.0,58,0.00,,,0.32,WUHU216HW,2013-02-12 20:36:00,
2013-02-12 15:46:00,40.3,26.6,29.92,NW,315,1.6,4.5,58,0.00,,,0.32,WUHU216HW,2013-02-12 20:46:00,
2013-02-12 15:57:00,40.0,26.3,29.91,WNW,293,1.8,5.4,58,0.00,,,0.32,WUHU216HW,2013-02-12 20:57:00,
2013-02-12 16:07:00,40.0,26.3,29.88,NNW,338,1.1,4.9,58,0.00,,,0.34,WUHU216HW,2013-02-12 21:07:00,
2013-02-12 16:17:00,40.0,26.3,29.87,West,270,0.9,5.4,58,0.00,,,0.34,WUHU216HW,2013-02-12 21:17:00,
2013-02-12 16:27:00,40.0,26.3,29.87,WNW,293,0.9,4.0,58,0.00,,,0.34,WUHU216HW,2013-02-12 21:27:00,
2013-02-12 16:37:00,39.6,26.4,29.88,NW,315,2.2,3.4,59,0.00,,,0.34,WUHU216HW,2013-02-12 21:37:00,
2013-02-12 16:47:00,39.2,26.5,29.91,NW,315,3.4,4.0,60,0.00,,,0.34,WUHU216HW,2013-02-12 21:47:00,
2013-02-12 16:57:00,39.1,26.6,29.91,WSW,248,1.1,3.4,61,0.00,,,0.34,WUHU216HW,2013-02-12 21:57:00,
2013-02-12 17:07:00,38.9,26.6,29.93,NW,315,1.6,1.8,61,0.00,,,0.36,WUHU216HW,2013-02-12 22:07:00,
2013-02-12 17:17:00,38.7,26.4,29.94,WSW,248,1.1,4.0,61,0.00,,,0.36,WUHU216HW,2013-02-12 22:17:00,
2013-02-12 17:27:00,38.5,26.6,29.97,SW,225,1.3,2.2,62,0.00,,,0.36,WUHU216HW,2013-02-12 22:27:00,
2013-02-12 17:37:00,38.3,26.4,29.98,WSW,248,1.1,3.4,62,0.00,,,0.36,WUHU216HW,2013-02-12 22:37:00,
2013-02-12 17:47:00,38.3,26.4,29.98,WSW,248,2.0,2.5,62,0.00,,,0.36,WUHU216HW,2013-02-12 22:47:00,
2013-02-12 17:57:00,38.2,26.7,30.00,West,270,0.7,1.3,63,0.00,,,0.36,WUHU216HW,2013-02-12 22:57:00,
2013-02-12 18:07:00,38.2,26.3,30.01,West,270,0.9,2.2,62,0.00,,,0.36,WUHU216HW,2013-02-12 23:07:00,
2013-02-12 18:18:00,38.3,26.4,30.00,West,270,1.1,3.4,62,0.00,,,0.00,WUHU216HW,2013-02-12 23:18:00,
2013-02-12 18:28:00,38.2,25.8,30.01,WSW,248,0.4,2.5,61,0.00,,,0.00,WUHU216HW,2013-02-12 23:28:00,
2013-02-12 18:38:00,38.2,25.8,30.01,West,270,4.7,4.7,61,0.00,,,0.00,WUHU216HW,2013-02-12 23:38:00,
2013-02-12 18:48:00,38.2,25.8,29.99,NW,315,4.0,4.0,61,0.00,,,0.00,WUHU216HW,2013-02-12 23:48:00,
2013-02-12 18:58:00,37.8,25.9,30.00,NW,315,0.7,2.2,62,0.00,,,0.00,WUHU216HW,2013-02-12 23:58:00,
2013-02-12 19:08:00,37.8,25.9,30.00,WNW,293,1.8,3.8,62,0.00,,,0.00,WUHU216HW,2013-02-13 00:08:00,
2013-02-12 19:18:00,37.6,25.7,30.01,WNW,293,1.1,3.1,62,0.00,,,0.00,WUHU216HW,2013-02-13 00:18:00,
2013-02-12 19:28:00,37.4,26.0,30.00,West,270,1.8,2.9,63,0.00,,,0.00,WUHU216HW,2013-02-13 00:28:00,
2013-02-12 19:38:00,37.1,25.7,30.01,West,270,0.7,1.8,63,0.00,,,0.00,WUHU216HW,2013-02-13 00:38:00,
2013-02-12 19:48:00,37.1,25.7,30.01,WSW,248,0.0,1.8,63,0.00,,,0.00,WUHU216HW,2013-02-13 00:48:00,
2013-02-12 19:58:00,36.9,25.5,30.01,West,270,0.0,1.1,63,0.00,,,0.00,WUHU216HW,2013-02-13 00:58:00,
2013-02-12 20:08:00,36.7,25.7,30.00,West,270,1.1,1.3,64,0.00,,,0.00,WUHU216HW,2013-02-13 01:08:00,
2013-02-12 20:18:00,36.4,25.4,30.00,West,270,0.4,1.1,64,0.00,,,0.00,WUHU216HW,2013-02-13 01:18:00,
2013-02-12 20:28:00,36.0,25.4,30.00,NW,315,0.4,1.6,65,0.00,,,0.00,WUHU216HW,2013-02-13 01:28:00,
2013-02-12 20:38:00,35.6,25.0,29.99,NW,315,0.9,0.9,65,0.00,,,0.00,WUHU216HW,2013-02-13 01:38:00,
2013-02-12 20:48:00,35.5,25.2,29.98,WNW,293,0.4,0.7,66,0.00,,,0.00,WUHU216HW,2013-02-13 01:48:00,
2013-02-12 20:58:00,34.9,24.7,29.98,West,270,0.0,0.4,66,0.00,,,0.00,WUHU216HW,2013-02-13 01:58:00,
2013-02-12 21:08:00,34.6,24.3,29.97,West,270,0.0,0.4,66,0.00,,,0.00,WUHU216HW,2013-02-13 02:08:00,
2013-02-12 21:18:00,34.2,24.7,29.97,West,270,0.2,0.7,68,0.00,,,0.00,WUHU216HW,2013-02-13 02:18:00,
2013-02-12 21:28:00,33.7,24.1,29.96,WNW,293,0.0,0.7,68,0.00,,,0.00,WUHU216HW,2013-02-13 02:28:00,
2013-02-12 21:38:00,33.5,24.7,29.96,West,270,0.7,0.7,70,0.00,,,0.00,WUHU216HW,2013-02-13 02:38:00,
2013-02-12 21:48:00,34.0,24.8,29.96,NW,315,0.9,1.3,69,0.00,,,0.00,WUHU216HW,2013-02-13 02:48:00,
2013-02-12 21:58:00,34.4,24.8,29.96,NNW,338,0.9,2.0,68,0.00,,,0.00,WUHU216HW,2013-02-13 02:58:00,
2013-02-12 22:08:00,34.6,25.0,29.95,NNW,338,0.7,2.7,68,0.00,,,0.00,WUHU216HW,2013-02-13 03:08:00,
2013-02-12 22:18:00,34.6,24.7,29.95,North,0,0.4,2.7,67,0.00,,,0.00,WUHU216HW,2013-02-13 03:18:00,
2013-02-12 22:28:00,34.4,24.5,29.96,SW,225,0.0,0.9,67,0.00,,,0.00,WUHU216HW,2013-02-13 03:28:00,
2013-02-12 22:38:00,34.2,24.3,29.96,NW,315,0.9,1.1,67,0.00,,,0.00,WUHU216HW,2013-02-13 03:38:00,
2013-02-12 22:48:00,34.2,24.3,29.95,NW,315,0.4,1.8,67,0.00,,,0.00,WUHU216HW,2013-02-13 03:48:00,
2013-02-12 22:58:00,34.4,24.5,29.96,West,270,0.4,1.3,67,0.00,,,0.00,WUHU216HW,2013-02-13 03:58:00,
2013-02-12 23:08:00,34.2,24.3,29.96,WNW,293,0.0,1.8,67,0.00,,,0.00,WUHU216HW,2013-02-13 04:08:00,
2013-02-12 23:18:00,34.2,24.3,29.97,WSW,248,0.7,1.1,67,0.00,,,0.00,WUHU216HW,2013-02-13 04:18:00,
2013-02-12 23:28:00,34.2,24.7,29.97,West,270,0.9,1.6,68,0.00,,,0.00,WUHU216HW,2013-02-13 04:28:00,
2013-02-12 23:38:00,33.8,24.3,29.96,NW,315,0.4,1.3,68,0.00,,,0.00,WUHU216HW,2013-02-13 04:38:00,
2013-02-12 23:48:00,33.5,24.3,29.97,WSW,248,0.2,0.7,69,0.00,,,0.00,WUHU216HW,2013-02-13 04:48:00,
2013-02-12 23:58:00,33.1,24.0,29.97,NW,315,0.0,0.7,69,0.00,,,0.00,WUHU216HW,2013-02-13 04:58:00,